Regional Weather Roundup
Issued by NWS

Home | Current Version | Previous Version | Text Only | Print | Product List | Glossary Off
Versions: 1 2 3 4 5 6 7 8 9 10 11 12 13 14 15 16 17 18 19 20 21 22 23 24 25 26 27 28 29 30 31 32 33 34 35 36 37 38 39 40 41 42 43 44 45 46 47 48 49 50

000
ASUS43 KBIS 200210
RWRND

NORTH DAKOTA REGIONAL WEATHER ROUNDUP
NATIONAL WEATHER SERVICE BISMARCK ND
800 PM CST SUN FEB 19 2017

NOTE: "FAIR" INDICATES FEW OR NO CLOUDS BELOW 12,000 FEET WITH NO
SIGNIFICANT WEATHER AND/OR OBSTRUCTIONS TO VISIBILITY.


NDZ001>003-009>011-017-200300-
NORTHWEST NORTH DAKOTA

CITY           SKY/WX    TMP DP  RH WIND       PRES   REMARKS
WILLISTON      FOG       33  32  96 N9        29.54R VSB 1/2
MINOT          FAIR      32  30  92 NW3       29.51S
MINOT AFB      CLOUDY    31  29  95 CALM      29.51S
$$

NDZ018>021-031>035-040>046-200300-
SOUTHWEST NORTH DAKOTA

CITY           SKY/WX    TMP DP  RH WIND       PRES   REMARKS
BISMARCK       FAIR      37  35  92 E8        29.53R
DICKINSON      FAIR      44  36  73 NE6       29.47R
GARRISON         N/A     34  32  92 CALM      29.51R
HETTINGER ARPT CLOUDY    44  36  73 E5        29.48S
$$

NDZ004>008-012>016-024-026-027-054-200300-
NORTHEAST NORTH DAKOTA

CITY           SKY/WX    TMP DP  RH WIND       PRES   REMARKS
GRAND FORKS    CLOUDY    41  33  73 SE10      29.62F
GRND FRKS AFB  CLOUDY    40  37  88 SE12      29.61F
DEVILS LAKE    FAIR      36  35  96 SE8       29.57R FOG
$$

NDZ022-023-025-028>030-036>039-047>053-200300-
SOUTHEAST NORTH DAKOTA

CITY           SKY/WX    TMP DP  RH WIND       PRES   REMARKS
FARGO          PTCLDY    51  45  79 SE17G25   29.63S
JAMESTOWN      FAIR      43  41  93 SE10      29.55R
$$




USA.gov is the U.S. government's official web portal to all federal, state and local government web resources and services.